Weather History for Ft. Stewart, GA

Change the Weather History Date:

Thursday, April 25, 2013

  Actual Average Record
Temperature  
Mean Temperature 73 °F -  
Max Temperature 84 °F 81 °F 91 °F (1976)
Min Temperature 62 °F 54 °F 39 °F (2005)
Cooling Degree Days 8    
Growing Degree Days 23 (Base 50)    
Moisture  
Dew Point 61 °F    
Average Humidity 67    
Maximum Humidity 100    
Minimum Humidity 45    
Precipitation  
Precipitation 0.00 in - - ()
Sea Level Pressure  
Sea Level Pressure 30.16 in    
Wind  
Wind Speed 5 mph (West)    
Max Wind Speed 10 mph    
Max Gust Speed -    
Visibility 10 miles    
Events      
Averages and records for this station are not official NWS values.
T = Trace of Precipitation, MM = Missing Value Source: NWS Daily Summary

Daily Weather History Graph

Daily Weather History Graph

Search for Another Location

Airport:

Trip Planner

Search our weather history database for the weather conditions in past years. The results will help you decide how hot, cold, wet, or windy it might be!

Date:

Astronomy

Apr. 25, 2013 Rise Set
Actual Time 6:46 AM EDT 8:02 PM EDT
Civil Twilight 6:20 AM EDT 8:28 PM EDT
Nautical Twilight 5:50 AM EDT 8:58 PM EDT
Astronomical Twilight 5:18 AM EDT 9:30 PM EDT
Moon 8:12 PM EDT (4/25) 6:27 AM EDT (4/25)
Length of Visible Light 14h 07m
Length of Day
13h 16m
Full, 100% of the Moon is Illuminated
Apr 25
Full
Apr 25
Full
May 2
Last Quarter
May 9
New
May 18
First Quarter

Hourly Weather History & Observations

Time (EDT) Temp. Heat Index Dew Point Humidity Pressure Visibility Wind Dir Wind Speed Gust Speed Precip Events Conditions
2:10 AM 66.2 °F - 60.8 °F 83% 30.11 in 10.0 mi South 4.6 mph - N/A   Mostly Cloudy
2:58 AM 68.0 °F - 60.8 °F 78% 30.11 in 10.0 mi SSW 6.9 mph - N/A   Overcast
3:58 AM 66.2 °F - 60.8 °F 83% 30.11 in 10.0 mi SSW 4.6 mph - N/A   Scattered Clouds
4:58 AM 64.4 °F - 60.8 °F 88% 30.11 in 10.0 mi North 3.5 mph - N/A   Partly Cloudy
5:59 AM 62.6 °F - 60.8 °F 94% 30.12 in 7.0 mi SSW 2.3 mph - N/A   Clear
7:55 AM 62.6 °F - 62.6 °F 100% 30.17 in 7.0 mi Calm Calm - N/A   Overcast
8:58 AM 68.5 °F - 61.3 °F 78% 30.19 in 10.0 mi WSW 5.8 mph - N/A   Mostly Cloudy
9:58 AM 73.0 °F - 62.4 °F 69% 30.19 in 10.0 mi Calm Calm - N/A   Clear
10:58 AM 74.8 °F - 63.5 °F 68% 30.20 in 10.0 mi NW 8.1 mph - N/A   Mostly Cloudy
11:58 AM 77.2 °F - 63.7 °F 63% 30.20 in 10.0 mi South 5.8 mph - N/A   Scattered Clouds
12:58 PM 79.5 °F - 63.9 °F 59% 30.18 in 10.0 mi SSW 5.8 mph - N/A   Mostly Cloudy
1:58 PM 80.6 °F 81.9 °F 63.0 °F 55% 30.18 in 10.0 mi West 8.1 mph - N/A   Mostly Cloudy
2:58 PM 82.6 °F 83.1 °F 61.2 °F 48% 30.16 in 10.0 mi WSW 10.4 mph - N/A   Scattered Clouds
3:58 PM 82.9 °F 83.7 °F 61.7 °F 49% 30.14 in 10.0 mi WNW 8.1 mph - N/A   Mostly Cloudy
4:58 PM 82.6 °F 83.1 °F 60.8 °F 48% 30.13 in 10.0 mi West 9.2 mph - N/A   Clear
5:58 PM 84.0 °F 84.2 °F 60.8 °F 45% 30.13 in 10.0 mi NW 10.4 mph - N/A   Mostly Cloudy
6:58 PM 82.0 °F 82.5 °F 60.4 °F 48% 30.13 in 10.0 mi West 9.2 mph - N/A   Partly Cloudy
7:58 PM 78.6 °F - 60.4 °F 54% 30.15 in 10.0 mi WNW 5.8 mph - N/A   Clear
8:58 PM 73.8 °F - 60.3 °F 63% 30.18 in 10.0 mi WNW 4.6 mph - N/A   Mostly Cloudy
9:58 PM 71.8 °F - 58.8 °F 64% 30.21 in 10.0 mi NNW 4.6 mph - N/A   Clear
10:58 PM 68.0 °F - 57.7 °F 70% 30.22 in 10.0 mi NNW 3.5 mph - N/A   Clear
11:58 PM 66.0 °F - 56.1 °F 70% 30.22 in 10.0 mi NW 4.6 mph - N/A   Clear